Home > Weather > Senftenberg > Past weeks

Flag for Germany Past Weather in Senftenberg, Brandenburg, Germany — Yesterday and Last 2 Weeks

Now
77 °F

Partly sunny.


Feels Like: 79 °F
Forecast: 63 / 77 °F
Wind: 9 mph from West

Location: Dresden-Klotzsche

Current Time: Jul 29, 2016 at 5:51:26 PM

Latest Report: Jul 29, 2016 at 5:20 PM


Visibility: N/A

Pressure: 29.89 "Hg

Humidity: 47%

Dew Point: 55 °F

Location of SenftenbergLocation

Past Weather in Senftenberg — Graph

°F

Senftenberg Temperature Yesterday

Maximum temperature yesterday: 77 °F (at 5:20 PM)
Minimum temperature yesterday: 61 °F (at 2:20 AM)
Average temperature yesterday: 69 °F

High & Low Weather Summary for the Past Weeks

 TemperatureHumidityPressure
High82 °F (Jul 22, 4:50 PM)100% (Jul 15, 2:50 AM)30.27 "Hg (Jul 15, 2:50 AM)
Low50 °F (Jul 16, 3:50 AM)29% (Jul 16, 5:50 PM)29.89 "Hg (Jul 29, 4:20 PM)
Average68 °F74%30.07 "Hg
* Reported Jul 14 4:20 PM — Jul 29 4:50 PM, Senftenberg, Weather by CustomWeather, © 2016

Note: Actual official high and low records may vary slightly from our data, if they occured in-between our weather recording intervals... More about our weather records

Advertising

Senftenberg Weather History for the Previous 24 Hours

Scroll right to see more
 ConditionsComfort  
Time TempWeatherWind HumidityBarometerVisibility
4:50 PM
Fri, Jul 29
75 °FScattered clouds.9 mph50%29.89 "HgN/A
4:20 PM77 °FScattered clouds.7 mph47%29.89 "HgN/A
3:50 PM77 °FScattered clouds.9 mph47%29.92 "HgN/A
3:20 PM77 °FScattered clouds.8 mph47%29.92 "HgN/A
2:50 PM75 °FPassing clouds.13 mph50%29.92 "HgN/A
2:20 PM75 °FPassing clouds.9 mph54%29.92 "HgN/A
1:50 PM73 °FPassing clouds.7 mph61%29.92 "HgN/A
1:20 PM73 °FScattered clouds.9 mph57%29.92 "HgN/A
12:50 PM72 °FPartly sunny.7 mph61%29.92 "HgN/A
12:20 PM72 °FPartly sunny.9 mph61%29.95 "HgN/A
11:50 AM72 °FPartly sunny.9 mph61%29.95 "HgN/A
11:20 AM72 °FScattered clouds.13 mph57%29.95 "HgN/A
10:50 AM73 °FScattered clouds.8 mph61%29.95 "HgN/A
10:20 AM72 °FPassing clouds.8 mph65%29.95 "HgN/A
9:50 AM72 °FScattered clouds.9 mph69%29.95 "HgN/A
9:20 AM70 °FPassing clouds.8 mph73%29.95 "HgN/A
8:50 AM68 °FScattered clouds.9 mph73%29.95 "HgN/A
8:20 AM68 °FScattered clouds.9 mph78%29.95 "HgN/A
7:50 AM66 °FScattered clouds.7 mph83%29.95 "HgN/A
7:20 AM66 °FBroken clouds.5 mph83%29.95 "HgN/A
6:50 AM64 °FPartly sunny.5 mph88%29.95 "HgN/A
6:20 AM64 °FPassing clouds.1 mph88%29.92 "HgN/A
5:50 AM64 °FSprinkles. Partly cloudy.3 mph83%29.95 "HgN/A
5:20 AM64 °FScattered showers. Passing clouds.7 mph88%29.95 "HgN/A
4:50 AM66 °FPartly cloudy.8 mph78%29.92 "HgN/A
4:20 AM68 °FSprinkles. Partly cloudy.7 mph73%29.92 "HgN/A
3:50 AM66 °FClear.7 mph78%29.92 "Hg10 mi
3:20 AM66 °FClear.7 mph78%29.92 "Hg10 mi
2:50 AM66 °FClear.7 mph78%29.92 "Hg10 mi
2:20 AM66 °FClear.7 mph78%29.92 "Hg10 mi
1:50 AM66 °FClear.6 mph78%29.95 "Hg10 mi
1:20 AM66 °FClear.7 mph78%29.95 "Hg10 mi
12:50 AM66 °FClear.6 mph78%29.95 "Hg10 mi
12:20 AM66 °FClear.6 mph78%29.95 "Hg10 mi
11:50 PM
Thu, Jul 28
66 °FClear.6 mph78%29.95 "Hg10 mi
11:20 PM68 °FClear.5 mph73%29.95 "Hg10 mi
10:50 PM66 °FClear.6 mph78%29.98 "Hg10 mi
10:20 PM70 °FClear.7 mph64%29.98 "Hg10 mi
9:50 PM70 °FSunny.6 mph64%29.98 "Hg10 mi
9:20 PM70 °FSunny.7 mph64%29.98 "Hg10 mi
8:50 PM72 °FSunny.3 mph61%29.95 "Hg10 mi
8:20 PM73 °FSunny.5 mph57%29.95 "Hg10 mi
7:50 PM75 °FSunny.1 mph54%29.95 "Hg10 mi
7:20 PM77 °FSunny.2 mph47%29.95 "Hg10 mi
6:50 PM75 °FSunny.2 mph50%29.98 "Hg10 mi
6:20 PM77 °FSunny.2 mph47%29.98 "Hg10 mi
5:50 PM77 °FSunny.2 mph47%29.98 "Hg10 mi
5:20 PM77 °FPassing clouds.3 mph51%29.98 "HgN/A
Weather by CustomWeather, © 2016

See weather overviewHow to use our weather pages